Location: Vinland
(47.7731°N, 122.6974°W)
Time: 02:19:10
(UTC+00:00)

S-56A Canister/Altair - Pass Details

Date: 30 March 2023
Orbit: 639 x 2492 km, 38.9° (Epoch: 31 May)

Event Time Altitude Azimuth Distance (km) Brightness Sun altitude
Rises 03:39:39 0° 253° (WSW) 4,896 12.6 -11.2°
Reaches altitude 10° 03:42:34 10° 249° (WSW) 4,128 12.0 -11.6°
Maximum altitude 03:53:55 58° 175° (S) 2,527 9.9 -13.4°
Enters shadow 04:05:38 18° 105° (ESE) 4,502 10.8 -15.3°
